Weather in Nor Hachen

Armenia     40°18′34″N   44°34′52″E
temp.,
°C
wind,
m/s
gust,
m/s
humid.,
%
clouds,
%
prec.,
mm/h
press.,
hPa
HPBL,
m
18 may, wed
wed1801:00+12ne475894 0.0 1013165
04:00+11ne346355 0.1 1014108
07:00+12ne226150 0.0 1014134
10:00+17s33465 0.0 1014900
13:00+20ssw33381 0.1 10121605
16:00+22ssw24331 0.1 10102087
19:00+20s23404 0.0 1010949
22:00+15ne22525 0.0 101340
19 may, thu
thu1901:00+14ne336128 0.2 101471
04:00+12ne22634 0.2 101429
07:00+14ne22615 0.0 101575
10:00+19sw23481 0.0 1014990
13:00+22ssw35360 0.1 10122015
16:00+24ssw353019 0.1 10102595
19:00+15n567599 1.8 1012240
22:00+14ne45720 2.3 1012101
20 may, fri
fri2001:00+13ne34735 0.6 101258
04:00+12ne32715 0.7 101232
07:00+13ne22690 0.2 101255
10:00+17ssw235165 0.9 1011752
13:00+21ssw5735100 0.5 10092376
16:00+18w554311 0.8 10081234
19:00+14ssw235685 0.4 1010429
22:00+8ne5771100 0.9 1016907
21 may, sat
sat2101:00+7ese127594 1.2 1018474
04:00+7nne1367100 1.2 1018322
07:00+7nne126242 0.0 1020355
10:00+11sw124417 0.0 10191423
13:00+15sw323552 0.0 10162100
16:00+16sw323310 0.1 10152040
19:00+16s22370 0.0 10141066
22:00+11ne33510 0.0 101669
22 may, sun
sun2201:00+10nne22490 0.0 101445
04:00+9nne23510 0.0 101552
07:00+11ne22500 0.0 101581
10:00+15ssw22390 0.0 1013907
13:00+19ssw22300 0.0 10101295
16:00+22ssw12260 0.0 10081390
19:00+21ssw11340 0.0 1006553
22:00+15ne33422 0.0 100750